DF1NIF-13 Weather Reports


time (UTC)temp
F
wind
direction
speed
knots
gust
knots
rain 1hr
in
rain 24hr
in
rain mn
in
humidity
%
barometer
mb
20260903145928 62 65 0.0 0.0 0.00 0.00 0.00 87 973.8
20260903145513 62 66 0.0 0.0 0.00 0.00 0.00 87 973.9
20260903145053 62 338 0.0 0.9 0.00 0.00 0.00 88 973.9
20260903144153 62 338 0.0 0.9 0.00 0.00 0.00 85 974.1
20260903143733 62 338 0.9 0.9 0.00 0.00 0.00 85 974.2
20260903143253 62 338 0.9 0.9 0.00 0.00 0.00 85 974.0
20260903142813 62 338 0.0 0.9 0.00 0.00 0.00 85 974.4
20260903142343 63 338 0.0 2.6 0.00 0.00 0.00 85 974.2
20260903141853 63 335 0.0 0.0 0.00 0.00 0.00 85 974.6
20260903141403 63 335 0.9 2.6 0.00 0.00 0.00 83 974.6
20260903140903 63 335 0.9 2.6 0.00 0.00 0.00 83 974.4
20260903140436 63 349 0.0 2.6 0.00 0.00 0.00 83 974.5
20260903140008 63 286 1.7 2.6 0.00 0.00 0.00 83 974.3
20260903135533 63 286 1.7 4.3 0.00 0.00 0.00 83 974.2
20260903135058 63 286 1.7 4.3 0.00 0.00 0.00 83 974.4
20260903134623 64 286 1.7 4.3 0.00 0.00 0.00 83 974.2
20260903134136 64 9 0.9 2.6 0.00 0.00 0.00 81 974.2
20260903133653 64 102 0.9 0.9 0.00 0.00 0.00 81 974.2
20260903133238 64 102 1.7 0.9 0.00 0.00 0.00 81 974.2
20260903132758 64 306 0.0 0.9 0.00 0.00 0.00 81 974.1
20260903132333 63 306 1.7 0.9 0.00 0.00 0.00 78 974.2
20260903131853 65 306 1.7 0.9 0.00 0.00 0.00 68 974.4
20260903131433 65 306 0.9 0.9 0.00 0.00 0.00 68 974.1
20260903131013 65 274 0.9 4.3 0.00 0.00 0.00 68 974.2
20260903130533 68 265 0.0 7.8 0.00 0.00 0.00 68 974.3
20260903130113 68 321 7.8 4.3 0.00 0.00 0.00 57 974.6
20260903125656 68 321 7.8 7.8 0.00 0.00 0.00 57 974.4
20260903125246 68 321 7.8 11.3 0.00 0.00 0.00 57 974.2
20260903124816 68 334 6.1 15.6 0.00 0.00 0.00 57 974.3
20260903124401 68 159 4.3 7.8 0.00 0.00 0.00 57 974.3
20260903123956 68 159 3.5 7.8 0.00 0.00 0.00 57 974.3
20260903123523 68 159 3.5 6.1 0.00 0.00 0.00 57 974.1
20260903123113 69 159 3.5 6.1 0.00 0.00 0.00 52 973.8
20260903122638 69 324 0.0 4.3 0.00 0.00 0.00 52 973.8
20260903122213 69 159 0.9 11.3 0.00 0.00 0.00 52 973.7
20260903121723 69 341 2.6 11.3 0.00 0.00 0.00 52 974.0
20260903121233 69 341 1.7 7.8 0.00 0.00 0.00 52 974.0
20260903120808 68 341 0.9 7.8 0.00 0.00 0.00 50 974.0
20260903120328 68 289 4.3 4.3 0.00 0.00 0.00 50 974.2
20260903115916 68 289 6.1 4.3 0.00 0.00 0.00 50 974.1
20260903115513 68 289 1.7 4.3 0.00 0.00 0.00 50 974.2
20260903115048 69 159 1.7 12.2 0.00 0.00 0.00 50 974.2
20260903114618 69 159 1.7 2.6 0.00 0.00 0.00 50 974.3
20260903114158 69 159 1.7 7.8 0.00 0.00 0.00 50 974.5
20260903113728 69 159 7.8 11.3 0.00 0.00 0.00 50 974.5
20260903113256 69 159 1.7 9.6 0.00 0.00 0.00 50 974.4
20260903112843 69 345 7.0 11.3 0.00 0.00 0.00 50 974.3
20260903112423 69 216 3.5 15.6 0.00 0.00 0.00 51 974.5
20260903111948 69 216 3.5 13.9 0.00 0.00 0.00 51 974.6
20260903111538 69 216 1.7 6.1 0.00 0.00 0.00 52 974.4
20260903111103 69 263 6.1 11.3 0.00 0.00 0.00 52 974.4
20260903110623 69 149 3.5 7.8 0.00 0.00 0.00 52 974.7
20260903110123 69 159 9.6 7.8 0.00 0.00 0.00 53 974.4
20260903105656 68 203 5.2 11.3 0.00 0.00 0.00 53 974.6
20260903105233 68 203 5.2 11.3 0.00 0.00 0.00 53 974.6
20260903104823 67 203 0.9 4.3 0.00 0.00 0.00 53 974.8
20260903104358 67 317 0.9 7.8 0.00 0.00 0.00 53 974.5
20260903103923 67 136 4.3 9.6 0.00 0.00 0.00 53 974.7
20260903103514 68 136 7.0 9.6 0.00 0.00 0.00 53 974.8
20260903103102 68 114 9.6 12.2 0.00 0.00 0.00 48 974.6
20260903102656 68 114 7.0 9.6 0.00 0.00 0.00 48 974.8
20260903102213 68 321 11.3 19.1 0.00 0.00 0.00 48 974.9
20260903101743 69 260 17.4 7.8 0.00 0.00 0.00 48 974.9
20260903101316 69 353 10.4 7.8 0.00 0.00 0.00 48 975.1
20260903100848 69 315 10.4 7.8 0.00 0.00 0.00 48 975.0
20260903100413 69 315 7.8 7.8 0.00 0.00 0.00 48 975.0
20260903095948 69 265 7.8 12.2 0.00 0.00 0.00 48 975.0
20260903095513 69 203 7.8 15.6 0.00 0.00 0.00 50 975.1
20260903095028 68 1 11.3 15.6 0.00 0.00 0.00 50 974.9
20260903094553 68 238 9.6 15.6 0.00 0.00 0.00 50 974.8
20260903094128 69 116 9.6 21.7 0.00 0.00 0.00 48 974.9
20260903093708 69 325 6.1 17.4 0.00 0.00 0.00 48 975.1
20260903093243 69 111 6.1 12.2 0.00 0.00 0.00 48 975.1
20260903092756 69 136 7.8 12.2 0.00 0.00 0.00 48 974.8
20260903092348 69 136 4.3 11.3 0.00 0.00 0.00 48 975.1
20260903091902 68 326 0.9 13.9 0.00 0.00 0.00 48 974.8
20260903091433 68 321 2.6 7.8 0.00 0.00 0.00 49 974.7
20260903091013 68 333 3.5 17.4 0.00 0.00 0.00 49 975.1
20260903090613 69 333 5.2 17.4 0.00 0.00 0.00 48 975.0
20260903090118 69 135 0.9 9.6 0.00 0.00 0.00 49 974.9
20260903085653 69 238 3.5 4.3 0.00 0.00 0.00 51 974.8
20260903085223 68 289 0.9 2.6 0.00 0.00 0.00 51 974.9
20260903084733 66 304 2.6 11.3 0.00 0.00 0.00 51 974.9
20260903084248 66 284 8.7 7.8 0.00 0.00 0.00 51 975.0
20260903083759 68 211 8.7 7.8 0.00 0.00 0.00 51 975.3
20260903083333 68 211 4.3 12.2 0.00 0.00 0.00 51 975.0
20260903082848 68 141 0.9 4.3 0.00 0.00 0.00 51 975.2
20260903082428 66 102 3.5 6.1 0.00 0.00 0.00 51 975.1
20260903082028 66 71 0.9 2.6 0.00 0.00 0.00 51 975.1
20260903081603 66 71 0.9 2.6 0.00 0.00 0.00 55 974.9
20260903081153 66 71 0.9 2.6 0.00 0.00 0.00 55 974.8
20260903080728 66 342 0.9 4.3 0.00 0.00 0.00 55 974.8
20260903080253 65 100 0.0 4.3 0.00 0.00 0.00 55 974.8
20260903075808 65 140 0.0 4.3 0.00 0.00 0.00 55 974.7
20260903075318 65 108 5.2 0.0 0.00 0.00 0.00 59 974.7
20260903074848 64 108 4.3 7.8 0.00 0.00 0.00 59 974.7
20260903074413 64 114 1.7 7.8 0.00 0.00 0.00 59 974.6
20260903073958 64 99 3.5 4.3 0.00 0.00 0.00 59 974.8
20260903073548 65 99 1.7 7.8 0.00 0.00 0.00 59 974.7
20260903073115 65 119 1.7 6.1 0.00 0.00 0.00 59 975.0
20260903072658 65 119 1.7 2.6 0.00 0.00 0.00 59 974.8
20260903072228 65 119 0.9 2.6 0.00 0.00 0.00 64 975.2
20260903071745 65 106 0.9 4.3 0.00 0.00 0.00 64 975.0
20260903071328 63 113 0.9 4.3 0.00 0.00 0.00 64 975.1
20260903070835 63 113 1.7 4.3 0.00 0.00 0.00 64 975.2
20260903070358 63 97 1.7 0.9 0.00 0.00 0.00 64 975.1
20260903065908 63 97 0.9 0.0 0.00 0.00 0.00 64 975.0
20260903065438 63 19 0.9 0.0 0.00 0.00 0.00 64 975.2
20260903065033 65 19 0.0 0.0 0.00 0.00 0.00 64 975.3
20260903064613 65 19 0.9 0.0 0.00 0.00 0.00 63 975.0
20260903064128 65 19 0.9 0.0 0.00 0.00 0.00 63 975.3
20260903063703 61 19 0.9 0.0 0.00 0.00 0.00 66 975.2
20260903063225 61 19 0.9 0.0 0.00 0.00 0.00 66 975.2
20260903062758 61 19 0.0 0.0 0.00 0.00 0.00 77 975.2
20260903062343 60 19 0.0 0.0 0.00 0.00 0.00 77 975.0
20260903061903 60 324 0.9 0.0 0.00 0.00 0.00 77 975.4
20260903061415 55 324 0.0 0.0 0.00 0.00 0.00 77 975.5
20260903060923 55 324 0.0 0.0 0.00 0.00 0.00 77 975.4
20260903060455 55 324 0.0 0.9 0.00 0.00 0.00 77 975.3
20260903060048 55 324 0.0 0.0 0.00 0.00 0.00 77 975.4
20260903055603 55 322 0.0 0.0 0.00 0.00 0.00 88 975.4
20260903055133 55 322 0.0 0.0 0.00 0.00 0.00 88 975.5
20260903054708 55 322 0.0 0.0 0.00 0.00 0.00 88 975.2
20260903054255 53 322 0.0 0.0 0.00 0.00 0.00 88 975.3
20260903053843 53 322 0.0 0.0 0.00 0.00 0.00 88 975.1
20260903053418 53 322 0.0 0.0 0.00 0.00 0.00 88 975.1
20260903053013 52 322 0.0 0.0 0.00 0.00 0.00 88 974.8
20260903052548 52 322 0.0 0.0 0.00 0.00 0.00 88 974.7
20260903052113 52 322 0.0 0.0 0.00 0.00 0.00 88 974.8
20260903051653 53 322 0.0 0.0 0.00 0.00 0.00 88 974.8
20260903051203 53 322 0.0 0.0 0.00 0.00 0.00 88 974.6
20260903050743 53 322 0.0 0.0 0.00 0.00 0.00 87 974.7
20260903050333 53 322 0.0 0.0 0.00 0.00 0.00 87 974.8
20260903045913 53 322 0.9 0.0 0.00 0.00 0.00 87 974.8
20260903045458 53 322 0.0 0.0 0.00 0.00 0.00 87 974.6
20260903045043 53 322 0.0 0.0 0.00 0.00 0.00 87 974.8
20260903044618 53 322 0.0 0.0 0.00 0.00 0.00 86 975.1
20260903044118 54 322 0.0 0.0 0.00 0.00 0.00 86 974.7
20260903043638 53 322 0.0 0.0 0.00 0.00 0.00 86 974.6
20260903043203 53 322 0.0 0.9 0.00 0.00 0.00 88 974.5
20260903042728 53 322 1.7 0.9 0.00 0.00 0.00 88 974.8
20260903042238 53 322 0.0 0.9 0.00 0.00 0.00 88 974.7
20260903041823 53 322 0.0 0.9 0.00 0.00 0.00 88 974.7
20260903041333 53 322 0.0 0.9 0.00 0.00 0.00 88 974.8
20260903040908 53 322 0.0 0.9 0.00 0.00 0.00 88 975.0
20260903040448 54 322 0.0 0.9 0.00 0.00 0.00 88 974.5
20260903040038 53 322 0.0 0.9 0.00 0.00 0.00 88 974.6
20260903035623 53 327 0.9 0.9 0.00 0.00 0.00 88 974.9
20260903035148 53 327 0.0 0.9 0.00 0.00 0.00 88 974.8
20260903034708 54 327 0.9 0.9 0.00 0.00 0.00 88 974.7
20260903034253 54 327 0.9 0.9 0.00 0.00 0.00 88 974.9
20260903033833 54 327 0.9 0.0 0.00 0.00 0.00 88 974.9
20260903033358 54 327 0.9 0.0 0.00 0.00 0.00 88 974.6
20260903032918 54 327 0.0 0.0 0.00 0.00 0.00 75 974.8
20260903032435 54 327 0.0 0.0 0.00 0.00 0.00 75 974.8
20260903032018 54 327 0.0 0.0 0.00 0.00 0.00 75 974.8
20260903031555 54 327 0.0 0.0 0.00 0.00 0.00 75 974.8
20260903031118 54 327 0.0 0.0 0.00 0.00 0.00 75 974.7
20260903030643 54 327 0.0 0.0 0.00 0.00 0.00 75 974.8
20260903030203 54 327 0.0 0.0 0.00 0.00 0.00 75 974.8
20260903025733 53 327 0.0 0.0 0.00 0.00 0.00 75 974.8
20260903025308 53 327 0.0 0.0 0.00 0.00 0.00 75 974.8
20260903024833 53 327 0.0 0.0 0.00 0.00 0.00 75 974.9
20260903024428 53 327 0.0 0.0 0.00 0.00 0.00 75 974.7
20260903023955 53 327 0.0 0.0 0.00 0.00 0.00 75 974.8
20260903023535 53 327 0.9 0.0 0.00 0.00 0.00 75 974.7
20260903023058 53 327 0.0 0.0 0.00 0.00 0.00 75 974.7
20260903022621 53 327 0.0 0.0 0.00 0.00 0.00 75 974.9
20260903022143 53 327 0.9 0.0 0.00 0.00 0.00 75 974.8
20260903021653 54 327 0.0 0.0 0.00 0.00 0.00 75 974.5
20260903021233 55 327 0.0 0.0 0.00 0.00 0.00 75 974.6
20260903020743 55 327 0.0 0.0 0.00 0.00 0.00 75 974.8
20260903020253 55 327 0.0 0.9 0.00 0.00 0.00 75 974.7
20260903015843 55 327 0.9 0.0 0.00 0.00 0.00 75 974.7
20260903015423 55 327 0.9 0.0 0.00 0.00 0.00 75 974.7
20260903015003 55 327 0.0 0.0 0.00 0.00 0.00 75 974.7
20260903014535 55 327 0.0 0.0 0.00 0.00 0.00 75 974.7
20260903014113 57 327 0.0 0.0 0.00 0.00 0.00 75 974.6
20260903013708 57 327 0.0 0.0 0.00 0.00 0.00 75 974.7
20260903013238 56 327 0.0 0.0 0.00 0.00 0.00 75 974.7
20260903012803 57 327 0.0 0.0 0.00 0.00 0.00 75 974.9
20260903012333 57 327 0.0 0.9 0.00 0.00 0.00 75 974.6
20260903011848 57 327 0.0 0.9 0.00 0.00 0.00 75 974.7
20260903011413 57 327 0.0 0.9 0.00 0.00 0.00 75 974.7
20260903010948 57 327 0.0 0.9 0.00 0.00 0.00 75 974.6
20260903010513 57 327 0.9 0.9 0.00 0.00 0.00 75 974.8
20260903010033 57 327 0.9 0.9 0.00 0.00 0.00 75 974.6
20260903005603 57 302 0.0 0.9 0.00 0.00 0.00 75 974.7
20260903005133 57 302 0.0 0.0 0.00 0.00 0.00 75 974.6
20260903004643 57 302 0.0 0.9 0.00 0.00 0.00 75 974.7
20260903004158 58 302 0.0 0.9 0.00 0.00 0.00 75 974.6
20260903003742 58 302 0.0 0.9 0.00 0.00 0.00 75 974.6
20260903003308 59 302 0.0 0.9 0.00 0.00 0.00 75 974.6
20260903002833 59 302 0.0 0.9 0.00 0.00 0.00 75 974.6
20260903002413 59 302 0.0 0.0 0.00 0.00 0.00 75 974.8
20260903001955 59 302 0.0 0.0 0.00 0.00 0.00 75 974.5
20260903001538 59 302 0.9 0.9 0.00 0.00 0.00 75 974.8
20260903001135 59 302 0.0 0.0 0.00 0.00 0.00 75 974.5
20260903000713 59 302 0.0 0.0 0.00 0.00 0.00 75 974.7
20260903000233 59 302 0.0 0.0 0.00 0.00 0.00 76 974.6
20260902235808 59 302 0.0 0.0 0.00 0.00 0.00 76 974.7
20260902235328 59 302 0.0 0.9 0.00 0.00 0.00 76 974.8
20260902234858 59 302 0.0 0.0 0.00 0.00 0.00 76 974.7
20260902234444 59 302 0.0 0.0 0.00 0.00 0.00 76 974.5
20260902233953 59 302 0.0 0.0 0.00 0.00 0.00 76 974.7
20260902233533 59 302 0.0 0.0 0.00 0.00 0.00 76 974.7
20260902233053 60 302 0.0 0.0 0.00 0.00 0.00 76 974.5
20260902232638 60 302 0.0 0.0 0.00 0.00 0.00 76 974.5
20260902232153 60 302 0.0 0.0 0.00 0.00 0.00 76 974.6
20260902231723 60 302 0.0 0.0 0.00 0.00 0.00 76 974.7
20260902231235 60 302 0.0 0.0 0.00 0.00 0.00 75 974.7
20260902230808 60 302 0.0 0.0 0.00 0.00 0.00 75 974.6
20260902230318 60 302 0.0 0.0 0.00 0.00 0.00 75 974.7
20260902225835 60 302 0.0 0.0 0.00 0.00 0.00 75 974.6
20260902225408 60 302 0.0 0.0 0.00 0.00 0.00 75 974.7
20260902224923 60 302 0.0 0.0 0.00 0.00 0.00 75 974.7
20260902224513 60 302 0.0 0.0 0.00 0.00 0.00 74 974.6
20260902224055 60 302 0.9 0.0 0.00 0.00 0.00 74 974.6
20260902223603 60 302 0.9 0.0 0.00 0.00 0.00 74 974.5
20260902223123 60 302 0.0 0.0 0.00 0.00 0.00 74 974.5
20260902222647 60 302 0.9 0.0 0.00 0.00 0.00 74 974.7
20260902222226 60 314 0.0 0.0 0.00 0.00 0.00 74 974.7
20260902221806 60 314 0.0 0.0 0.00 0.00 0.00 74 974.5
20260902221328 60 314 0.0 0.9 0.00 0.00 0.00 74 974.8
20260902220838 60 308 0.0 0.0 0.00 0.00 0.00 74 974.6
20260902220418 60 308 0.0 0.0 0.00 0.00 0.00 74 974.5
20260902220003 60 303 0.0 2.6 0.00 0.00 0.00 74 974.4
20260902215503 60 313 0.0 0.9 0.00 0.00 0.00 74 974.6
20260902215038 60 313 0.0 2.6 0.00 0.00 0.00 74 974.5
20260902214548 60 313 0.9 2.6 0.00 0.00 0.00 74 974.6
20260902214108 60 306 1.7 2.6 0.00 0.00 0.00 74 974.6
20260902213615 60 317 0.9 2.6 0.00 0.00 0.00 74 974.6
20260902213143 60 317 1.7 0.0 0.00 0.00 0.00 74 974.7
20260902212733 60 317 0.0 0.0 0.00 0.00 0.00 74 974.5
20260902212313 60 317 0.9 0.9 0.00 0.00 0.00 74 974.6
20260902211843 60 317 0.9 0.0 0.00 0.00 0.00 74 974.6
20260902211413 60 317 0.9 0.0 0.00 0.00 0.00 68 974.5
20260902210948 60 317 0.9 0.0 0.00 0.00 0.00 68 974.6
20260902210528 60 317 0.9 2.6 0.00 0.00 0.00 68 974.6
20260902210058 60 317 1.7 2.6 0.00 0.00 0.00 68 974.5
20260902205633 60 317 0.9 2.6 0.00 0.00 0.00 68 974.2
20260902205213 60 317 0.9 2.6 0.00 0.00 0.00 68 974.2
20260902204803 60 287 0.9 2.6 0.00 0.00 0.00 68 974.3
20260902204328 60 287 1.7 0.9 0.00 0.00 0.00 68 974.4
20260902203918 60 287 1.7 0.0 0.00 0.00 0.00 68 974.4
20260902203448 60 287 0.0 0.0 0.00 0.00 0.00 68 974.5
20260902203013 60 287 0.0 0.0 0.00 0.00 0.00 68 974.2
20260902202543 62 287 0.0 0.9 0.00 0.00 0.00 68 974.3
20260902202103 62 287 1.7 2.6 0.00 0.00 0.00 68 974.2
20260902201645 62 287 0.0 2.6 0.00 0.00 0.00 68 974.3
20260902201228 62 329 1.7 0.9 0.00 0.00 0.00 68 974.3
20260902200753 62 329 0.9 0.0 0.00 0.00 0.00 68 974.2
20260902200258 62 329 0.9 0.0 0.00 0.00 0.00 68 974.5
20260902195828 63 329 0.9 0.9 0.00 0.00 0.00 63 974.2
20260902195408 63 329 0.0 0.9 0.00 0.00 0.00 63 974.1
20260902194928 68 329 0.0 0.9 0.00 0.00 0.00 63 974.2
20260902194513 68 329 1.7 0.9 0.00 0.00 0.00 63 974.3
20260902194058 68 329 1.7 0.9 0.00 0.00 0.00 63 974.1
20260902193623 68 324 1.7 0.9 0.00 0.00 0.00 63 974.3
20260902193158 68 324 0.9 0.9 0.00 0.00 0.00 63 974.3
20260902192708 68 324 0.9 2.6 0.00 0.00 0.00 63 974.3
20260902192253 68 324 0.9 0.9 0.00 0.00 0.00 63 974.3
20260902191808 68 324 1.7 0.9 0.00 0.00 0.00 63 974.3
20260902191353 68 324 1.7 0.9 0.00 0.00 0.00 63 974.2
20260902190913 68 324 0.9 0.9 0.00 0.00 0.00 61 974.2
20260902190453 68 324 0.9 0.9 0.00 0.00 0.00 61 974.1
20260902190033 68 324 1.7 2.6 0.00 0.00 0.00 61 974.1
20260902185555 68 324 1.7 2.6 0.00 0.00 0.00 57 973.9
20260902185138 68 331 1.7 2.6 0.00 0.00 0.00 57 973.9
20260902184655 68 331 2.6 4.3 0.00 0.00 0.00 57 974.0
20260902184218 68 331 2.6 2.6 0.00 0.00 0.00 57 974.1
20260902183803 68 304 2.6 6.1 0.00 0.00 0.00 57 973.9
20260902183355 68 346 2.6 4.3 0.00 0.00 0.00 57 973.7
20260902182913 68 346 3.5 7.8 0.00 0.00 0.00 57 973.6
20260902182453 68 346 1.7 4.3 0.00 0.00 0.00 57 973.7
20260902182018 68 346 1.7 2.6 0.00 0.00 0.00 57 973.5
20260902181543 68 346 1.7 2.6 0.00 0.00 0.00 57 973.6
20260902181123 68 346 1.7 2.6 0.00 0.00 0.00 57 973.5
20260902180643 68 346 1.7 4.3 0.00 0.00 0.00 57 973.5
20260902180215 68 296 1.7 4.3 0.00 0.00 0.00 57 973.4
20260902175743 69 296 1.7 2.6 0.00 0.00 0.00 57 973.4
20260902175308 69 356 2.6 4.3 0.00 0.00 0.00 55 973.4
20260902174843 69 356 4.3 6.1 0.00 0.00 0.00 55 973.4
20260902174353 69 356 3.5 6.1 0.00 0.00 0.00 55 973.4
20260902173913 71 356 5.2 6.1 0.00 0.00 0.00 55 973.4
20260902173453 71 356 7.8 6.1 0.00 0.00 0.00 55 973.3
20260902172958 71 337 7.8 7.8 0.00 0.00 0.00 55 973.2
20260902172538 71 337 4.3 12.2 0.00 0.00 0.00 55 973.4
20260902172115 71 346 3.5 7.8 0.00 0.00 0.00 55 973.1
20260902171623 71 355 3.5 2.6 0.00 0.00 0.00 50 973.3
20260902171135 72 355 1.7 2.6 0.00 0.00 0.00 50 973.2
20260902170728 72 355 5.2 6.1 0.00 0.00 0.00 50 973.4
20260902170243 72 350 5.2 6.1 0.00 0.00 0.00 50 973.2
20260902165808 72 350 5.2 4.3 0.00 0.00 0.00 50 973.4
20260902165338 72 350 5.2 7.8 0.00 0.00 0.00 50 973.4
20260902164933 72 311 5.2 7.8 0.00 0.00 0.00 50 973.4
20260902164500 72 358 6.1 7.8 0.00 0.00 0.00 50 973.3
20260902164053 72 357 6.1 7.8 0.00 0.00 0.00 50 973.3
20260902163648 72 357 5.2 4.3 0.00 0.00 0.00 50 973.0
20260902163223 72 354 0.9 4.3 0.00 0.00 0.00 50 973.0
20260902162748 71 341 0.9 4.3 0.00 0.00 0.00 50 973.1
20260902162323 71 342 4.3 4.3 0.00 0.00 0.00 50 973.2
20260902161828 72 346 4.3 6.1 0.00 0.00 0.00 50 973.1
20260902161418 72 346 2.6 4.3 0.00 0.00 0.00 50 973.2
20260902161013 72 346 5.2 11.3 0.00 0.00 0.00 50 973.1
20260902160518 72 346 5.2 7.8 0.00 0.00 0.00 50 973.3
20260902160053 72 346 4.3 9.6 0.00 0.00 0.00 50 973.5
20260902155633 72 356 1.7 7.8 0.00 0.00 0.00 50 973.2
20260902155153 72 356 1.7 6.1 0.00 0.00 0.00 50 973.2
20260902154738 72 355 3.5 6.1 0.00 0.00 0.00 50 973.1
20260902154313 72 268 4.3 4.3 0.00 0.00 0.00 50 973.2
20260902153815 72 288 4.3 6.1 0.00 0.00 0.00 50 973.4
20260902153413 72 288 4.3 6.1 0.00 0.00 0.00 50 973.2
20260902152953 72 288 4.3 4.3 0.00 0.00 0.00 50 973.2
20260902152515 72 264 4.3 6.1 0.00 0.00 0.00 50 973.3
20260902152103 73 264 4.3 2.6 0.00 0.00 0.00 45 973.2
20260902151633 72 269 3.5 6.1 0.00 0.00 0.00 45 973.1
20260902151203 72 345 4.3 7.8 0.00 0.00 0.00 45 973.5
20260902150715 72 107 0.9 7.8 0.00 0.00 0.00 45 973.3
20260902150238 75 219 0.9 11.3 0.00 0.00 0.00 45 973.2